Regional Weather Roundup
Issued by NWS Kansas City/Pleasant Hill, MO

Home | Current Version | Previous Version | Text Only | Print | Product List | Glossary On
Versions: 1 2 3 4 5 6 7 8 9 10 11 12 13 14 15 16 17 18 19 20 21 22 23 24 25 26 27
000
ASUS43 KEAX 270010
RWREAX

WEATHER ROUNDUP FOR EASTERN KANSAS AND NORTHWEST MISSOURI
NATIONAL WEATHER SERVICE KANSAS CITY/PLEASANT HILL MO
600 PM CST SUN FEB 26 2017

KSZ040-057-103>105-MOZ028-029-037-043-270100-
...KANSAS CITY METROPOLITAN AREA...

CITY           SKY/WX    TMP DP  RH WIND       PRES   REMARKS
K.C. INTL      PTCLDY    43  25  49 S9        29.96R
6HR MIN TEMP:  43; 6HR MAX TEMP:  52;

K.C. DOWNTOWN  CLEAR     48  30  49 S9        29.97R
6HR MIN TEMP:  44; 6HR MAX TEMP:  53;

LEES SUMMIT    CLEAR     45  34  65 S10       29.98R
6HR MIN TEMP:  45; 6HR MAX TEMP:  50;

OLATHE - IXD   CLEAR     46  32  58 SE8       29.97R
6HR MIN TEMP:  46; 6HR MAX TEMP:  51;

OLATHE - OJC   PTCLDY    45  35  68 SE9       29.97R
6HR MIN TEMP:  44; 6HR MAX TEMP:  50;

LAWRENCE         N/A     48  32  53 E9        29.95R

$$

MOZ001>008-011>017-020>025-030>033-038>040-044>046-053-054-270100-
...NORTHERN AND CENTRAL MISSOURI...

CITY           SKY/WX    TMP DP  RH WIND       PRES   REMARKS
ST. JOSEPH     CLEAR     47  24  40 SW6       29.95R
6HR MIN TEMP:  47; 6HR MAX TEMP:  53;

MOSBY          CLEAR     46  27  46 S5        29.97R
WARRENSBURG    MOCLDY    41  34  75 SE10      30.01R WCI  35
WHITEMAN AFB   CLOUDY    41  39  93 S13       30.00R WCI  34
6HR MIN TEMP:  41; 6HR MAX TEMP:  47;

CLINTON        CLOUDY    39  37  93 SE7       30.03R WCI  34
SEDALIA        CLOUDY    42  35  76 S10       30.02R
6HR MIN TEMP:  42; 6HR MAX TEMP:  48;

WARSAW         NOT AVBL
CHILLICOTHE      N/A     47  23  38 S8        29.98R
6HR MIN TEMP:  46; 6HR MAX TEMP:  52;

KIRKSVILLE     CLEAR     43  21  41 S8        29.98R
6HR MIN TEMP:  43; 6HR MAX TEMP:  50;


$$

MOZ041-047>049-056>058-063>065-088>090-097-270100-
...EASTERN AND SOUTHERN MISSOURI...

CITY           SKY/WX    TMP DP  RH WIND       PRES   REMARKS
ST. LOUIS INTL CLOUDY    44  31  60 S12       30.08S
6HR MIN TEMP:  43; 6HR MAX TEMP:  50;

SPIRIT OF STL  CLOUDY    43  33  68 S6        30.07S
COLUMBIA       CLOUDY    42  35  76 S12       30.02S
JEFFERSON CITY LGT RAIN  41  36  82 S8        30.06R
ROLLA          MIX PCPN  37  35  92 S6        30.03R WCI  32
OSAGE BEACH    LGT RAIN  38  37  97 SE3       30.05R
SPRINGFIELD    CLOUDY    42  33  70 SE10      29.97S
BRANSON        CLOUDY    46  25  42 E8        30.00R
JOPLIN         CLOUDY    43  34  70 E7        29.97R
WEST PLAINS    CLOUDY    48  22  35 SE9       30.04R

$$

IAZ060-094-KSZ022-034>040-054-083-096-NEZ052-066-093-270100-
...KANSAS...SOUTHEAST NEBRASKA AND IOWA...

CITY           SKY/WX    TMP DP  RH WIND       PRES   REMARKS
TOPEKA         CLEAR     51  24  34 CALM      29.94R
6HR MIN TEMP:  47; 6HR MAX TEMP:  54;

MANHATTAN      CLEAR     48  24  39 CALM      29.94R
EMPORIA        CLEAR     47  26  44 SE6       29.93R
CHANUTE        CLEAR     47  29  49 SE6       29.96R
WICHITA        PTCLDY    50  24  36 N6        29.92R
OMAHA          CLEAR     40  23  50 N5        29.96R
LINCOLN        CLEAR     41  23  48 N3        29.96R
FALLS CITY     PTCLDY    46  23  40 NW6       29.93R
LAMONI         CLOUDY    44  22  41 NW7       29.94R
DES MOINES     PTCLDY    41  20  43 N7        29.97R

$$





USA.gov is the U.S. government's official web portal to all federal, state and local government web resources and services.